Location: Newark
(40.3500°N, 15.2333°E)
Time: 21:34:14
(UTC+00:00)

N. Korean satellite - Visible Passes

Search period start: 09 December 2019 00:00
Search period end: 19 December 2019 00:00
Orbit: 456 x 506 km, 97.2° (Epoch: 09 December)

Date Brightness Start Highest point End Pass type
(mag) Time Alt. Az. Time Alt. Az. Time Alt. Az.
09 Dec 9.7 03:56:30 10° NE 03:58:36 15° E 04:00:41 10° SE visible
09 Dec 7.4 05:28:59 10° N 05:32:04 28° WNW 05:35:06 10° SW visible
09 Dec 6.7 16:02:56 10° SSE 16:06:39 89° E 16:10:22 10° NNW visible
10 Dec 6.4 05:03:14 10° N 05:06:44 63° WNW 05:10:10 10° SSW visible
10 Dec 10.1 17:13:15 10° WSW 17:14:51 12° W 17:16:27 10° WNW visible
11 Dec 7.2 04:37:50 10° NNE 04:41:18 54° E 04:44:42 10° S visible
11 Dec 9.2 16:46:10 10° SSW 16:49:14 25° W 16:52:21 10° NW visible
12 Dec 8.9 04:12:52 10° NE 04:15:46 24° E 04:18:39 10° SSE visible
12 Dec 7.6 16:20:07 10° S 16:23:45 53° W 16:27:22 10° NNW visible
13 Dec 10.0 03:48:51 10° ENE 03:50:10 12° E 03:51:27 10° ESE visible
13 Dec 7.0 05:20:29 10° N 05:23:44 36° WNW 05:26:54 10° SW visible
14 Dec 6.3 04:54:51 10° N 04:58:21 83° WNW 05:01:48 10° SSW visible
14 Dec 9.9 17:04:10 10° SW 17:06:26 15° W 17:08:41 10° NW visible
15 Dec 7.8 04:29:34 10° NNE 04:32:54 41° E 04:36:09 10° S visible
15 Dec 8.7 16:37:33 10° SSW 16:40:51 31° W 16:44:09 10° NNW visible
16 Dec 9.3 04:04:46 10° NE 04:07:20 19° E 04:09:51 10° SE visible
16 Dec 7.7 05:37:55 10° NNW 05:40:40 22° WNW 05:43:21 10° WSW visible
16 Dec 7.0 16:11:42 10° S 16:15:22 69° W 16:19:02 10° NNW visible
17 Dec 6.7 05:12:00 10° N 05:15:21 46° WNW 05:18:39 10° SSW visible
18 Dec 6.6 04:46:28 10° NNE 04:49:57 74° ESE 04:53:21 10° S visible
18 Dec 9.6 16:55:19 10° SW 16:57:59 19° W 17:00:40 10° NW visible
